Measurements were made at the meteorological tower in Juelich (50.90 N / 6.40 E) at an altitude of 100 m,
"Instrument: Fast Greenhouse Gas Analyzer (FGGA), Los Gatos Inc.",
Responsible PI: Dr. Marc von Hobe; Forschungszentrum Juelich GmbH; IEK-7; email: m.von.hobe@fz-juelich.de,
NaN or negative numbers are fill values (i.e. no valid measurements were made at that time),
Uncertainties are given as the 1-sigma standard deviation over each 10 minute intervals. In each interval ~600 individual measurements are carried out so that the standard error of the mean is approximately sigma/sqrt(600).,
time_utc,CO2_ppm,stdev_CO2_ppm,CH4_ppm,stdev_CH4_ppm,H2O_ppm,stdev_H2O_ppm
"2016-06-01 00:05:00 000",408.516,1.36650,2.12566,0.00856229,13008.2,88.8961
"2016-06-01 00:15:00 000",409.296,1.71563,2.11335,0.0126281,12909.5,85.2645
"2016-06-01 00:25:00 000",413.127,2.88180,2.10456,0.00860734,12789.4,101.496
"2016-06-01 00:35:00 000",419.232,1.93518,2.13092,0.0101799,12767.8,108.344
"2016-06-01 00:45:00 000",420.140,1.82184,2.15123,0.0164848,12843.5,127.789
"2016-06-01 00:55:00 000",417.310,2.62978,2.11767,0.0279728,12876.9,147.821
"2016-06-01 01:05:00 000",422.748,2.31973,2.14309,0.0148896,12831.8,176.607
"2016-06-01 01:15:00 000",420.079,2.72729,2.12290,0.0113657,12881.7,182.997
"2016-06-01 01:25:00 000",418.961,2.05161,2.15195,0.0289113,12828.3,198.465
"2016-06-01 01:35:00 000",420.168,2.36966,2.17446,0.0184145,12786.8,196.801
"2016-06-01 01:45:00 000",419.070,3.89150,2.13582,0.0298993,12765.3,205.441
"2016-06-01 01:55:00 000",417.826,1.75285,2.12609,0.0142487,12745.2,200.262
"2016-06-01 02:05:00 000",419.625,1.24893,2.15812,0.0205706,12700.1,212.779
"2016-06-01 02:15:00 000",420.791,1.32093,2.14180,0.00797050,12669.5,202.228
"2016-06-01 02:25:00 000",423.608,1.69210,2.13878,0.00794981,12618.2,201.790
"2016-06-01 02:35:00 000",423.745,1.27579,2.14115,0.00889167,12632.3,197.708
"2016-06-01 02:45:00 000",420.740,1.67750,2.12743,0.0122082,12685.1,207.836
"2016-06-01 02:55:00 000",418.603,1.05398,2.11956,0.00613818,12681.8,190.898
"2016-06-01 03:05:00 000",419.083,2.18023,2.12246,0.00834282,12535.3,208.507
"2016-06-01 03:15:00 000",420.317,0.984185,2.12224,0.00742306,12420.3,178.182
"2016-06-01 03:25:00 000",423.693,1.90355,2.12178,0.00704869,12437.5,165.740
"2016-06-01 03:35:00 000",424.752,1.71177,2.12856,0.0139130,12465.1,160.756
"2016-06-01 03:45:00 000",423.838,1.19991,2.13994,0.0139864,12437.8,161.455
"2016-06-01 03:55:00 000",421.596,1.36280,2.12544,0.00648140,12485.7,157.001
"2016-06-01 04:05:00 000",419.957,1.14429,2.13200,0.00973657,12468.0,165.804
"2016-06-01 04:15:00 000",420.185,1.09719,2.11908,0.0134133,12428.1,146.787
"2016-06-01 04:25:00 000",421.846,1.74397,2.11007,0.00537931,12426.1,154.317
"2016-06-01 04:35:00 000",426.582,1.50880,2.14418,0.0189775,12345.0,161.465
"2016-06-01 04:45:00 000",427.898,1.39944,2.16226,0.0117931,12358.2,145.363
"2016-06-01 04:55:00 000",428.249,1.14507,2.15493,0.0137440,12401.0,146.369
"2016-06-01 05:05:00 000",426.707,1.49157,2.11411,0.00825135,12539.9,136.091
"2016-06-01 05:15:00 000",426.916,1.85326,2.10741,0.00697817,12685.9,138.121
"2016-06-01 05:25:00 000",429.609,1.48649,2.12450,0.00617879,12787.7,127.367
"2016-06-01 05:35:00 000",429.314,1.30703,2.12054,0.00536317,12917.3,136.775
"2016-06-01 05:45:00 000",429.721,1.39903,2.11954,0.00544454,12938.0,129.091
"2016-06-01 05:55:00 000",429.016,1.19019,2.11907,0.00522378,12979.3,121.363
"2016-06-01 06:05:00 000",426.970,1.31191,2.11646,0.00581834,12998.0,135.056
"2016-06-01 06:15:00 000",426.276,1.46363,2.11388,0.00561396,13036.7,135.577
"2016-06-01 06:25:00 000",425.796,1.04083,2.12566,0.0107695,13001.9,131.956
"2016-06-01 06:35:00 000",428.014,1.43430,2.13775,0.0104348,12907.0,158.921
"2016-06-01 06:45:00 000",427.198,1.61233,2.12478,0.0156534,12783.8,138.061
"2016-06-01 06:55:00 000",425.676,1.93903,2.14084,0.0137630,12798.9,134.396
"2016-06-01 07:05:00 000",423.155,1.83590,2.15371,0.0126651,12803.5,130.265
"2016-06-01 07:15:00 000",420.570,1.29162,2.14177,0.0145367,12791.4,135.843
"2016-06-01 07:25:00 000",419.431,1.28029,2.11832,0.0149167,12889.5,139.153
"2016-06-01 07:35:00 000",420.441,1.77712,2.14063,0.0236121,13000.1,138.467
"2016-06-01 07:45:00 000",422.378,1.85512,2.12252,0.0141496,13098.4,128.171
"2016-06-01 07:55:00 000",424.361,1.85214,2.11152,0.00880272,13172.1,128.465
"2016-06-01 08:05:00 000",421.632,2.07733,2.10845,0.00625608,13295.5,122.546
"2016-06-01 08:15:00 000",417.404,1.50343,2.11289,0.00632514,13435.1,141.995
"2016-06-01 08:25:00 000",415.211,1.12018,2.10971,0.00536205,13545.6,114.960
"2016-06-01 08:35:00 000",413.596,0.947342,2.10619,0.00575038,13588.3,116.962
"2016-06-01 08:45:00 000",414.714,1.05732,2.12195,0.00920753,13636.9,127.469
"2016-06-01 08:55:00 000",415.256,0.939669,2.13824,0.00599370,13859.9,146.174
"2016-06-01 09:05:00 000",413.489,1.14957,2.16093,0.0104195,14147.6,145.500
"2016-06-01 09:15:00 000",412.020,0.906816,2.15535,0.00807401,14279.9,133.804
"2016-06-01 09:25:00 000",411.002,1.24789,2.15406,0.00992535,14395.3,132.611
"2016-06-01 09:35:00 000",412.116,1.84746,2.16383,0.0124735,14394.8,117.103
"2016-06-01 09:45:00 000",413.239,1.16178,2.15091,0.0114779,14315.3,128.820
"2016-06-01 09:55:00 000",415.693,1.52164,2.17141,0.0124519,14310.2,137.791
"2016-06-01 10:05:00 000",419.357,1.46526,2.19090,0.0108301,14297.0,134.698
"2016-06-01 10:15:00 000",420.636,1.66609,2.18217,0.0119390,14488.2,138.095
"2016-06-01 10:25:00 000",420.564,1.68856,2.17665,0.00763606,14591.7,132.528
"2016-06-01 10:35:00 000",425.177,2.92849,2.22132,0.0176917,14513.8,138.627
"2016-06-01 10:45:00 000",433.760,2.28046,2.25999,0.0135008,14548.6,129.150
"2016-06-01 10:55:00 000",433.306,1.02815,2.29016,0.00978564,14572.2,130.610
"2016-06-01 11:05:00 000",433.970,1.87170,2.30795,0.0129794,14565.0,136.069
"2016-06-01 11:15:00 000",438.350,2.19477,2.31801,0.0111299,14682.3,131.376
"2016-06-01 11:25:00 000",439.715,1.83884,2.30772,0.00957294,14756.8,138.129
"2016-06-01 11:35:00 000",441.206,2.21731,2.29320,0.00851946,14834.5,139.642
"2016-06-01 11:45:00 000",439.154,1.14693,2.27348,0.0132975,14787.4,128.501
"2016-06-01 11:55:00 000",437.094,1.04310,2.23966,0.00970333,14813.6,129.480
"2016-06-01 12:05:00 000",435.756,0.946472,2.21227,0.0108549,14848.7,131.998
"2016-06-01 12:15:00 000",433.391,1.56730,2.18743,0.0108268,14745.2,151.493
"2016-06-01 12:25:00 000",430.867,1.59830,2.16278,0.00737141,14609.5,134.353
"2016-06-01 12:35:00 000",429.463,1.93145,2.15512,0.00540508,14670.8,138.376
"2016-06-01 12:45:00 000",428.585,1.27127,2.14778,0.00595663,14650.9,129.739
"2016-06-01 12:55:00 000",428.719,1.33827,2.14051,0.00645095,14625.3,161.536
"2016-06-01 13:05:00 000",427.180,1.05089,2.13253,0.00573724,14394.4,128.736
"2016-06-01 13:15:00 000",426.809,1.49997,2.12271,0.00563976,14367.8,144.292
"2016-06-01 13:25:00 000",426.501,1.04681,2.11947,0.00529769,14261.4,155.125
"2016-06-01 13:35:00 000",428.056,1.69994,2.11563,0.00519910,14293.7,147.412
"2016-06-01 13:45:00 000",424.901,1.72109,2.11427,0.00507074,14362.8,152.387
"2016-06-01 13:55:00 000",422.858,1.62038,2.11025,0.00534139,14365.7,145.148
"2016-06-01 14:05:00 000",421.533,1.83660,2.10735,0.00595516,14321.2,138.062
"2016-06-01 14:15:00 000",419.812,1.98658,2.10810,0.00637498,14428.8,156.294
"2016-06-01 14:25:00 000",417.092,1.30693,2.10399,0.00504956,14468.4,159.546
"2016-06-01 14:35:00 000",419.397,1.75068,2.11363,0.00904463,14637.9,134.256
"2016-06-01 14:45:00 000",417.422,3.45604,2.10915,0.00965211,14529.2,131.126
"2016-06-01 14:55:00 000",417.182,2.21165,2.10859,0.00970557,14579.9,138.619
"2016-06-01 15:05:00 000",415.143,1.17411,2.15816,0.0152421,14772.8,133.189
"2016-06-01 15:15:00 000",413.719,1.23349,2.12232,0.0117902,14611.8,137.873
"2016-06-01 15:25:00 000",412.288,1.24036,2.13317,0.0128796,14680.2,136.472
"2016-06-01 15:35:00 000",411.333,1.16723,2.11408,0.0115742,14746.6,132.487
"2016-06-01 15:45:00 000",408.651,1.22944,2.10615,0.0144011,14767.6,127.339
"2016-06-01 15:55:00 000",406.349,1.48296,2.09926,0.0117424,14861.8,142.891
"2016-06-01 16:05:00 000",404.363,1.27598,2.09741,0.0125314,15038.6,134.530
"2016-06-01 16:15:00 000",402.159,1.45637,2.09402,0.0156188,15138.1,150.165
"2016-06-01 16:25:00 000",401.461,1.37754,2.07870,0.00990261,15151.8,134.765
"2016-06-01 16:35:00 000",400.203,0.821672,2.06613,0.00641698,15073.1,135.381
"2016-06-01 16:45:00 000",399.166,0.944695,2.06110,0.00679027,15064.7,151.727
"2016-06-01 16:55:00 000",398.196,0.966295,2.05243,0.00597133,14993.3,132.090
"2016-06-01 17:05:00 000",397.832,0.915300,2.06549,0.00918320,15112.0,134.555
"2016-06-01 17:15:00 000",397.126,1.02739,2.05755,0.00995035,15062.7,135.673
"2016-06-01 17:25:00 000",396.252,1.07996,2.05149,0.00661601,15013.8,144.235
"2016-06-01 17:35:00 000",395.107,0.978057,2.04833,0.00853962,14867.1,139.646
"2016-06-01 17:45:00 000",395.266,1.09575,2.04042,0.00814333,14921.0,166.354
"2016-06-01 17:55:00 000",395.727,1.11445,2.05153,0.00686063,14892.0,163.355
"2016-06-01 18:05:00 000",394.180,1.00117,2.03991,0.00609321,14783.7,150.560
"2016-06-01 18:15:00 000",393.695,0.945262,2.03973,0.00594618,14752.3,144.254
"2016-06-01 18:25:00 000",393.465,0.885169,2.04293,0.00717380,14768.2,141.119
"2016-06-01 18:35:00 000",393.157,0.963613,2.04891,0.00801375,14781.9,138.997
"2016-06-01 18:45:00 000",392.384,0.855336,2.03252,0.00793426,14781.2,134.888
"2016-06-01 18:55:00 000",392.129,0.973840,2.02509,0.00666357,14748.6,139.823
"2016-06-01 19:05:00 000",392.026,0.873918,2.02207,0.00503933,14898.6,148.193
"2016-06-01 19:15:00 000",392.276,0.913951,2.02177,0.00619203,14878.7,142.760
"2016-06-01 19:25:00 000",391.707,0.898382,2.01881,0.00521460,14732.2,146.772
"2016-06-01 19:35:00 000",392.477,1.24195,2.02605,0.00794795,14679.5,145.228
"2016-06-01 19:45:00 000",394.440,1.37649,2.02745,0.00929833,14732.2,143.943
"2016-06-01 19:55:00 000",396.438,1.52302,2.04012,0.00970875,14791.2,155.990
"2016-06-01 20:05:00 000",398.651,1.43899,2.04425,0.00844594,14936.4,152.763
"2016-06-01 20:15:00 000",396.131,1.33194,2.05943,0.0188029,14949.7,152.764
"2016-06-01 20:25:00 000",394.718,0.906052,2.02209,0.0107001,14969.9,158.632
"2016-06-01 20:35:00 000",394.635,0.992212,2.01170,0.00560580,15062.5,161.880
"2016-06-01 20:45:00 000",395.766,1.15023,2.00982,0.00567673,15005.4,162.683
"2016-06-01 20:55:00 000",396.237,0.939931,2.00898,0.00543906,14987.8,164.466
"2016-06-01 21:05:00 000",396.530,0.984514,2.01242,0.00582472,14988.8,171.066
"2016-06-01 21:15:00 000",395.992,1.08634,2.00710,0.00624936,14919.1,156.831
"2016-06-01 21:25:00 000",395.097,1.03065,1.99226,0.00812401,14755.7,162.265
"2016-06-01 21:35:00 000",394.794,1.15451,1.98081,0.00642533,14614.8,160.908
"2016-06-01 21:45:00 000",394.534,0.883193,1.97806,0.00525247,14522.6,148.919
"2016-06-01 21:55:00 000",394.788,0.893988,1.98097,0.00492895,14524.5,152.838
"2016-06-01 22:05:00 000",394.797,0.901152,1.98517,0.00558198,14511.0,137.928
"2016-06-01 22:15:00 000",395.805,0.882057,1.98725,0.00475807,14562.8,147.150
"2016-06-01 22:25:00 000",396.124,0.884906,1.99285,0.00557352,14427.7,144.923
"2016-06-01 22:35:00 000",396.364,1.03327,1.99032,0.00638965,14625.6,171.690
"2016-06-01 22:45:00 000",396.807,0.926888,1.98647,0.00529395,14790.3,147.677
"2016-06-01 22:55:00 000",396.363,0.978408,1.98050,0.00604806,14827.0,147.556
"2016-06-01 23:05:00 000",395.954,0.883174,1.97466,0.00570833,14895.2,145.029
"2016-06-01 23:15:00 000",395.679,1.14146,1.96942,0.00631317,15085.9,157.128
"2016-06-01 23:25:00 000",395.950,1.03435,1.96598,0.00564534,15253.1,141.267
"2016-06-01 23:35:00 000",395.809,1.03246,1.96707,0.00495468,15356.4,144.098
"2016-06-01 23:45:00 000",396.364,1.60563,1.96740,0.00530855,15480.4,149.919
"2016-06-01 23:55:00 000",394.731,1.18262,1.96724,0.00522991,15682.2,143.211
"2016-06-02 00:05:00 000",394.980,1.09683,1.96933,0.00536396,15698.1,149.320
"2016-06-02 00:15:00 000",393.384,1.06189,1.96749,0.00514066,15756.8,153.694
"2016-06-02 00:25:00 000",392.422,0.956298,1.97369,0.00557988,15748.3,150.993
"2016-06-02 00:35:00 000",392.677,1.04803,1.98034,0.00611288,15792.6,168.557
"2016-06-02 00:45:00 000",393.741,0.959387,1.98597,0.00500909,15809.9,161.553
"2016-06-02 00:55:00 000",394.826,0.913024,1.98712,0.00519910,15886.0,170.110
"2016-06-02 01:05:00 000",396.295,1.13061,1.98916,0.00523953,15989.8,164.269
"2016-06-02 01:15:00 000",396.785,0.846814,1.99251,0.00559780,16004.9,168.602
"2016-06-02 01:25:00 000",398.054,0.958490,1.99446,0.00542676,16050.2,175.377
"2016-06-02 01:35:00 000",399.713,0.987036,1.99806,0.00550647,16083.9,167.087
"2016-06-02 01:45:00 000",400.999,1.01479,2.00137,0.00594195,16100.2,183.924
"2016-06-02 01:55:00 000",403.082,1.03477,2.01300,0.00993963,16187.6,196.201
"2016-06-02 02:05:00 000",404.563,0.923672,2.02087,0.00751160,16277.3,194.412
"2016-06-02 02:15:00 000",404.986,1.00986,2.01332,0.00623565,16296.8,196.857
"2016-06-02 02:25:00 000",405.777,0.860423,2.01636,0.00600269,16302.2,201.241
"2016-06-02 02:35:00 000",406.336,0.917895,2.01561,0.00662812,16332.4,191.502
"2016-06-02 02:45:00 000",408.371,1.26050,2.01837,0.00663012,16312.8,201.670
"2016-06-02 02:55:00 000",409.730,1.09039,2.01718,0.00703954,16313.1,199.832
"2016-06-02 03:05:00 000",411.045,1.15776,2.02142,0.00784996,16304.5,200.566
"2016-06-02 03:15:00 000",412.580,0.940367,2.02965,0.00721932,16315.2,208.859
"2016-06-02 03:25:00 000",414.364,1.77655,2.03561,0.00911182,16211.3,208.319
"2016-06-02 03:35:00 000",419.544,1.72639,2.07036,0.0140545,15961.6,227.559
"2016-06-02 03:45:00 000",420.594,0.907429,2.07209,0.00698795,15688.5,200.764
"2016-06-02 03:55:00 000",420.692,1.08206,2.06789,0.00736269,15556.3,206.187
"2016-06-02 04:05:00 000",419.045,1.67998,2.06326,0.00885698,15352.3,202.904
"2016-06-02 04:15:00 000",417.097,1.09062,2.05030,0.00706260,15312.0,200.176
"2016-06-02 04:25:00 000",417.176,1.25598,2.04343,0.00702829,15371.2,208.078
"2016-06-02 04:35:00 000",415.901,1.06614,2.04089,0.00728239,15420.2,201.952
"2016-06-02 04:45:00 000",415.100,1.17749,2.03762,0.00690684,15457.2,207.869
"2016-06-02 04:55:00 000",415.187,1.35104,2.03401,0.00696837,15556.2,206.937
"2016-06-02 05:05:00 000",415.573,0.983436,2.03223,0.00645473,15562.6,216.226
"2016-06-02 05:15:00 000",416.111,0.972595,2.03180,0.00690545,15604.4,204.195
"2016-06-02 05:25:00 000",415.178,1.13791,2.02699,0.00641681,15665.4,204.059
"2016-06-02 05:35:00 000",412.896,1.05907,2.02263,0.00691587,15651.6,204.789
"2016-06-02 05:45:00 000",412.022,1.34525,2.01697,0.00670087,15729.7,211.797
"2016-06-02 05:55:00 000",413.650,0.895364,2.01151,0.00637985,15757.3,204.573
"2016-06-02 06:05:00 000",414.181,0.957736,2.01681,0.00668244,15747.3,213.963
"2016-06-02 06:15:00 000",414.205,1.54800,2.01752,0.00675364,15915.9,220.549
"2016-06-02 06:25:00 000",415.852,1.23288,2.01594,0.00653954,16014.8,223.823
"2016-06-02 06:35:00 000",416.112,1.00596,2.01750,0.00677479,16189.5,268.796
"2016-06-02 06:45:00 000",416.084,1.25478,2.01809,0.00704621,16543.8,219.008
"2016-06-02 06:55:00 000",415.196,1.06310,2.01762,0.00636053,16749.6,214.678
"2016-06-02 07:05:00 000",416.120,1.16027,2.02189,0.00698537,17026.3,232.176
"2016-06-02 07:15:00 000",414.320,1.19279,2.02221,0.00675159,17366.3,319.742
"2016-06-02 07:25:00 000",410.602,1.32558,2.01221,0.00782223,18128.0,252.567
"2016-06-02 07:35:00 000",412.640,2.18445,2.02721,0.00898942,16316.9,847.997
"2016-06-02 07:45:00 000",412.501,1.06696,2.03470,0.00506941,14929.0,193.634
"2016-06-02 07:55:00 000",411.610,1.04816,2.03521,0.00459627,14630.6,137.694
"2016-06-02 08:05:00 000",412.069,1.15226,2.04017,0.00408379,14324.4,259.661
"2016-06-02 08:15:00 000",412.021,1.04106,2.04061,0.00398521,14395.6,204.204
"2016-06-02 08:25:00 000",410.494,1.42124,2.04159,0.00454053,14567.1,453.523
"2016-06-02 08:35:00 000",411.258,1.43668,2.04238,0.00447558,13890.8,222.207
"2016-06-02 08:45:00 000",410.357,1.02953,2.03907,0.00594360,13826.2,149.255
"2016-06-02 08:55:00 000",409.646,1.07525,2.04270,0.00491346,14177.7,127.685
"2016-06-02 09:05:00 000",407.157,1.42130,2.03949,0.00474523,14333.0,88.4356
"2016-06-02 09:15:00 000",405.608,1.46898,2.02836,0.00619088,14178.6,318.305
"2016-06-02 09:25:00 000",404.859,1.57942,2.02069,0.00452211,14419.8,250.863
"2016-06-02 09:35:00 000",404.368,1.23872,2.02026,0.00439952,14028.3,159.752
"2016-06-02 09:45:00 000",407.258,2.19172,2.02063,0.00592475,14096.3,102.911
"2016-06-02 09:55:00 000",402.095,1.84028,2.01192,0.00546124,14210.7,128.884
"2016-06-02 10:05:00 000",399.230,1.20133,2.00327,0.00537975,14302.0,284.253
"2016-06-02 10:15:00 000",402.479,1.76831,2.00055,0.00493667,13616.8,114.401
"2016-06-02 10:25:00 000",403.253,2.30749,1.99542,0.00482924,13907.5,137.842
"2016-06-02 10:35:00 000",403.077,1.37889,1.98643,0.00599852,13550.2,272.580
"2016-06-02 10:45:00 000",404.423,3.18009,1.99276,0.00562909,13989.1,391.174
"2016-06-02 10:55:00 000",405.163,1.60330,1.99573,0.00566823,13625.0,162.314
"2016-06-02 11:05:00 000",407.569,3.73317,1.99272,0.00621871,13453.6,250.911
"2016-06-02 11:15:00 000",404.970,2.52567,1.99089,0.00492360,13862.9,189.518
"2016-06-02 11:25:00 000",403.644,1.87230,1.98947,0.00437312,13704.1,208.537
"2016-06-02 11:35:00 000",402.985,1.77757,1.99044,0.00432210,13698.8,236.692
"2016-06-02 11:45:00 000",401.063,1.82571,1.99422,0.00450974,13972.8,329.550
"2016-06-02 11:55:00 000",401.288,1.25905,1.99648,0.00431386,14085.8,138.191
"2016-06-02 12:05:00 000",407.774,4.97047,1.99689,0.00499670,13960.9,173.139
"2016-06-02 12:15:00 000",407.098,3.36147,1.99596,0.00497511,14099.7,222.917
"2016-06-02 12:25:00 000",404.250,1.04540,1.99921,0.00513535,13435.8,193.025
"2016-06-02 12:35:00 000",402.644,1.41570,1.99750,0.00414365,13798.6,245.767
"2016-06-02 12:45:00 000",403.109,2.05165,1.99854,0.00458244,13821.9,121.876
"2016-06-02 12:55:00 000",403.630,1.27115,2.00014,0.00439128,13853.7,126.022
"2016-06-02 13:05:00 000",403.469,0.992276,2.00177,0.00459115,14000.5,111.907
"2016-06-02 13:15:00 000",403.318,0.990082,2.00073,0.00454616,14043.2,136.564
"2016-06-02 13:25:00 000",403.228,1.57334,1.99965,0.00434614,14036.2,169.703
"2016-06-02 13:35:00 000",401.500,1.24886,2.00039,0.00486821,14104.2,210.083
"2016-06-02 13:45:00 000",401.811,1.01854,1.99818,0.00503538,13784.8,159.293
"2016-06-02 13:55:00 000",401.008,1.58421,1.99756,0.00473955,14002.1,176.253
"2016-06-02 14:05:00 000",400.946,1.24759,1.99300,0.00458220,14091.2,145.712
"2016-06-02 14:15:00 000",400.387,1.26971,1.99439,0.00464127,14165.9,150.384
"2016-06-02 14:25:00 000",398.151,1.95474,1.99187,0.00427909,14594.4,341.774
"2016-06-02 14:35:00 000",398.714,1.42622,1.98799,0.00526702,14337.4,353.447
"2016-06-02 14:45:00 000",397.822,1.73414,1.97784,0.00561796,14206.5,267.826
"2016-06-02 14:55:00 000",396.080,1.80618,1.97248,0.00495238,14294.3,176.163
"2016-06-02 15:05:00 000",398.907,1.17144,1.96493,0.00446484,13611.7,164.661
"2016-06-02 15:15:00 000",397.364,1.43470,1.96801,0.00411569,14034.8,228.049
"2016-06-02 15:25:00 000",397.983,1.30848,1.96661,0.00495457,13701.9,341.469
"2016-06-02 15:35:00 000",396.689,1.22312,1.97353,0.00484091,13845.1,267.593
"2016-06-02 15:45:00 000",397.184,1.41948,1.97892,0.00515865,13894.0,218.486
"2016-06-02 15:55:00 000",397.777,1.00221,1.98324,0.00478870,14401.4,100.501
"2016-06-02 16:05:00 000",394.967,2.96115,1.99152,0.0292090,14108.3,583.134
"2016-06-02 16:15:00 000",392.052,1.15792,2.02464,0.00803384,15992.4,211.849
"2016-06-02 16:25:00 000",393.361,0.991665,2.01625,0.00694178,16179.8,122.404
"2016-06-02 16:35:00 000",396.300,0.990222,1.96764,0.0156879,14878.7,353.154
"2016-06-02 16:45:00 000",396.926,0.822104,1.94789,0.00421440,14682.7,97.7224
"2016-06-02 16:55:00 000",397.104,0.906854,1.95076,0.00584342,14823.3,99.4333
"2016-06-02 17:05:00 000",398.312,0.871959,1.95695,0.00529328,14996.2,92.7371
"2016-06-02 17:15:00 000",397.567,1.00932,1.94679,0.00558561,14787.9,175.377
"2016-06-02 17:25:00 000",397.546,0.931465,1.94223,0.00661606,14584.3,184.185
"2016-06-02 17:35:00 000",397.548,0.959630,1.93674,0.00789087,14334.3,231.000
"2016-06-02 17:45:00 000",396.686,0.987976,1.92685,0.00668242,13972.8,203.486
"2016-06-02 17:55:00 000",396.553,0.994451,1.92603,0.00653811,14029.3,175.894
"2016-06-02 18:05:00 000",397.372,0.960225,1.92965,0.00554866,14182.8,156.479
"2016-06-02 18:15:00 000",398.668,0.987756,1.93245,0.00546894,14255.9,164.637
"2016-06-02 18:25:00 000",399.488,0.921594,1.93610,0.00543629,14234.2,177.066
"2016-06-02 18:35:00 000",399.546,0.915187,1.93659,0.00553307,14217.6,141.582
"2016-06-02 18:45:00 000",400.498,0.898771,1.94058,0.00629542,14369.0,175.851
"2016-06-02 18:55:00 000",400.486,0.911809,1.94003,0.00613677,14496.0,148.603
"2016-06-02 19:05:00 000",401.327,1.73438,1.93648,0.00639114,14557.9,164.060
"2016-06-02 19:15:00 000",402.446,1.14008,1.94160,0.00563700,14673.2,140.257
"2016-06-02 19:25:00 000",401.438,1.20297,1.95111,0.00708348,14701.4,138.636
"2016-06-02 19:35:00 000",402.286,1.39879,1.94527,0.00535978,14805.3,134.768
"2016-06-02 19:45:00 000",402.751,1.21086,1.94685,0.00489340,14878.9,132.025
"2016-06-02 19:55:00 000",403.083,1.58023,1.94838,0.00463494,14819.4,129.550
"2016-06-02 20:05:00 000",403.039,0.930447,1.95035,0.00473294,14821.4,112.408
"2016-06-02 20:15:00 000",403.079,1.05902,1.95708,0.00533361,14792.9,121.079
"2016-06-02 20:25:00 000",403.669,1.36060,1.95980,0.00532890,14853.1,122.289
"2016-06-02 20:35:00 000",406.732,1.10874,1.96062,0.00535904,14809.9,111.829
"2016-06-02 20:45:00 000",406.783,1.38488,1.96117,0.00577217,14828.7,116.545
"2016-06-02 20:55:00 000",408.054,1.04546,1.97501,0.00536226,14757.7,118.061
"2016-06-02 21:05:00 000",404.214,2.73423,1.97347,0.00494501,14773.7,122.461
"2016-06-02 21:15:00 000",402.119,1.76742,1.97263,0.00536729,14813.9,121.821
"2016-06-02 21:25:00 000",405.315,2.26855,1.97342,0.00480891,14838.0,120.516
"2016-06-02 21:35:00 000",407.637,1.47762,1.97120,0.00465256,14738.7,112.182
"2016-06-02 21:45:00 000",410.005,1.30376,1.97775,0.00633581,14757.7,123.756
"2016-06-02 21:55:00 000",410.715,1.19197,1.97622,0.00494835,14793.0,122.052
"2016-06-02 22:05:00 000",410.467,3.20582,1.98089,0.00637333,14814.6,120.358
"2016-06-02 22:15:00 000",404.908,2.33712,1.99307,0.00552979,14924.5,120.062
"2016-06-02 22:25:00 000",406.186,1.94987,1.98897,0.00535527,14910.7,116.237
"2016-06-02 22:35:00 000",405.604,1.68949,2.00926,0.0192013,14949.5,106.902
"2016-06-02 22:45:00 000",404.564,1.13312,2.02575,0.0100513,14797.2,112.674
"2016-06-02 22:55:00 000",403.249,1.14976,2.03061,0.00754872,14777.1,115.545
"2016-06-02 23:05:00 000",401.917,0.928470,2.04219,0.00670873,14677.1,134.806
"2016-06-02 23:15:00 000",401.621,0.853178,2.05313,0.00735505,14525.0,135.905
"2016-06-02 23:25:00 000",401.197,1.13277,2.06076,0.00673194,14363.5,132.736
"2016-06-02 23:35:00 000",401.561,0.978722,2.06476,0.00537713,14291.0,122.686
"2016-06-02 23:45:00 000",402.071,0.967300,2.06278,0.00546810,14299.7,116.911
"2016-06-02 23:55:00 000",402.815,1.08429,2.06613,0.00484299,14257.5,130.529
"2016-06-03 00:05:00 000",403.280,0.988322,2.06606,0.00501888,14147.9,122.124
"2016-06-03 00:15:00 000",403.007,0.927343,2.06562,0.00500294,14188.8,118.764
"2016-06-03 00:25:00 000",403.465,1.12979,2.06994,0.00547935,14247.4,120.354
"2016-06-03 00:35:00 000",403.641,1.02992,2.07516,0.00570894,14175.7,110.278
"2016-06-03 00:45:00 000",403.794,0.985004,2.08262,0.00444030,14120.1,106.943
"2016-06-03 00:55:00 000",403.454,0.893005,2.07744,0.00476952,14097.2,135.380
"2016-06-03 01:05:00 000",403.968,0.972507,2.08279,0.00528012,14048.2,104.863
"2016-06-03 01:15:00 000",404.424,0.975197,2.08962,0.00490452,14070.8,102.082
"2016-06-03 01:25:00 000",405.064,0.967849,2.09333,0.00487471,14097.3,104.246
"2016-06-03 01:35:00 000",405.515,0.977828,2.09776,0.00552472,14095.7,101.546
"2016-06-03 01:45:00 000",405.990,0.970615,2.10118,0.00538858,14117.9,105.677
"2016-06-03 01:55:00 000",406.092,0.944413,2.10668,0.00476353,14012.9,105.456
"2016-06-03 02:05:00 000",406.798,0.945417,2.10947,0.00483391,14084.7,106.845
"2016-06-03 02:15:00 000",407.309,1.06955,2.10890,0.00470463,14082.6,111.017